Location: Unspecified
(48.8656°N, 0.0000°E)
Time: 03:30:36
(UTC+00:00)

SR - Pass Details

Date: 29 June 2019
Orbit: 580 x 876 km, 66.7° (Epoch: 17 July)

Event Time Altitude Azimuth Distance (km) Brightness Sun altitude
Rises 11:02:39 0° 319° (NW) 3,039 ? 61.7°
Reaches altitude 10° 11:04:59 10° 313° (NW) 2,165 ? 61.9°
Maximum altitude 11:09:38 43° 243° (WSW) 1,038 ? 62.2°
Drops below altitude 10° 11:14:39 10° 173° (S) 2,337 ? 62.6°
Sets 11:17:15 0° 167° (SSE) 3,308 ? 62.8°
